Location: Newark
(6.1731°S, 35.7419°E)
Time: 08:06:40
(UTC+00:00)

N. Korean satellite - Visible Passes

Search period start: 21 January 2020 00:00
Search period end: 31 January 2020 00:00
Orbit: 454 x 507 km, 97.2° (Epoch: 20 January)

Date Brightness Start Highest point End Pass type
(mag) Time Alt. Az. Time Alt. Az. Time Alt. Az.
21 Jan 6.7 02:58:17 10° NNE 03:01:56 84° ESE 03:05:38 10° S visible
22 Jan 8.8 02:33:18 10° NE 02:36:31 30° ESE 02:39:48 10° SSE visible
23 Jan 10.1 02:09:38 10° ENE 02:11:09 12° ESE 02:12:41 10° SE visible
25 Jan 7.3 02:49:44 10° NNE 02:53:21 59° E 02:57:01 10° S visible
26 Jan 9.3 02:25:02 10° NE 02:27:58 22° ESE 02:30:54 10° SSE visible
28 Jan 6.6 03:06:32 10° N 03:10:11 68° W 03:13:54 10° SSW visible
29 Jan 8.0 02:41:16 10° NNE 02:44:46 42° ESE 02:48:19 10° S visible
30 Jan 9.8 02:16:56 10° ENE 02:19:23 17° ESE 02:21:50 10° SE visible
